{"data":{"norad_id":53413,"epoch":"2026-05-25T05:07:02.835264Z","epoch_age_seconds":46671,"freshness":"FRESH","line1":"1 53413U 22097AB  26145.21322726  .00000448  00000+0  46211-4 0  9992","line2":"2 53413  53.2134 130.5930 0001078  78.4923 281.6191 15.08840029210206","mean_motion":15.08840029,"eccentricity":0.0001078,"inclination_deg":53.2134,"raan_deg":130.593,"arg_perigee_deg":78.4923,"mean_anomaly_deg":281.6191,"bstar":4.6211e-5,"rev_number":21020,"period_min":95.43755284345,"perigee_km":538.99755282633,"apogee_km":540.48904781908,"semimajor_km":6917.8803003227,"source":"CELESTRAK","updated_at":"2026-05-25T13:38:17.401279Z"}}